Wind_Speed
82 84 86 88 89 88 88 87 86 86 86 86 86 86 86 88 90 92 94 94 94 93 93 95 96 98 98 96 93 86 71 55 52 56 56 53 52 53 55 56 58 58 59 58 58 63 64 63 62 63 82 101 95 89 95 96 93 93 95 95 92 87 86 85 82 79 78 76 75 74 73 72 70 68 68 68 65 63 62 64 66 66 65 66 69
83 85 87 88 88 88 87 86 86 86 86 86 86 86 87 89 91 93 94 94 93 93 94 96 98 99 97 93 88 79 64 53 52 56 55 52 52 53 54 55 58 58 58 58 58 62 63 63 61 65 85 103 96 91 97 97 94 95 95 96 96 90 83 80 78 77 77 75 72 72 72 72 72 69 68 69 67 64 64 65 67 67 65 64 65
84 85 86 87 87 87 86 85 86 86 86 86 86 87 88 90 92 94 94 93 93 94 95 98 100 99 96 90 82 70 57 51 52 54 53 51 51 53 53 54 54 52 52 55 57 61 61 61 61 68 89 105 97 93 99 99 97 97 96 97 98 94 84 77 76 76 76 74 72 70 70 71 72 69 67 68 68 66 66 65 64 65 67 67 67
85 85 86 86 86 86 85 85 86 86 86 86 87 88 89 91 93 94 94 93 93 94 97 100 101 99 93 85 74 62 52 50 52 52 51 50 50 51 51 49 47 45 47 51 56 58 58 59 61 72 93 104 97 94 100 101 99 97 97 98 100 98 88 78 75 76 75 73 71 70 69 70 71 68 66 67 69 70 70 67 63 63 65 67 69
85 85 85 85 85 85 85 85 86 86 86 87 88 89 90 92 93 94 93 93 93 95 98 101 100 97 89 77 65 55 50 51 51 49 49 50 50 49 48 45 42 43 46 49 53 54 55 58 62 75 96 103 95 93 97 99 100 96 93 96 100 99 89 80 76 75 74 73 72 70 69 70 72 71 68 67 69 71 70 67 64 63 61 62 63
84 85 85 84 84 84 85 85 86 86 87 87 88 89 91 93 93 93 93 93 94 97 100 101 98 93 82 69 57 50 49 50 49 46 47 49 49 48 45 41 40 43 45 47 51 54 56 59 64 78 97 100 91 89 91 93 97 96 90 90 97 97 90 85 81 77 75 74 74 72 70 71 75 75 72 70 69 69 68 65 63 62 60 58 57
83 84 84 84 84 84 85 85 86 86 87 88 89 90 92 93 93 93 93 94 96 99 101 99 94 87 75 61 51 48 49 49 46 44 45 48 49 47 43 39 40 43 45 47 51 53 56 60 67 81 97 96 85 82 84 86 90 93 90 88 92 94 91 89 87 81 77 77 76 73 71 72 76 76 74 72 70 68 66 64 62 61 60 58 57
83 83 83 83 84 84 85 85 86 87 88 88 89 91 92 93 93 94 94 95 98 101 101 96 89 80 67 54 48 48 48 45 42 43 45 47 48 46 42 39 42 44 45 48 50 51 54 61 71 85 96 93 81 76 79 84 88 91 90 88 88 91 91 90 88 84 80 79 77 75 73 76 78 76 74 74 73 70 67 64 60 59 59 59 59
82 82 83 83 84 84 85 85 87 88 88 89 90 91 92 93 94 94 95 98 100 101 98 91 83 71 58 50 48 47 45 41 40 43 45 46 47 46 41 39 43 45 46 47 48 48 52 62 77 89 92 88 81 77 77 85 93 94 93 89 86 88 91 90 88 85 82 81 80 78 78 79 80 79 77 75 71 68 67 65 62 60 59 60 61
81 82 82 83 83 84 85 86 87 88 89 90 91 92 93 93 94 95 97 100 101 99 92 85 77 64 52 49 48 44 40 38 39 43 44 45 45 44 41 40 43 46 46 45 45 46 52 65 83 91 87 82 82 81 82 88 95 98 98 93 86 87 89 88 88 86 82 82 82 80 79 81 80 77 73 69 66 63 63 64 65 64 63 63 64
81 81 82 82 83 84 84 85 87 88 89 90 91 92 93 94 95 97 99 101 100 94 85 78 69 58 50 47 45 40 38 38 40 42 44 44 44 43 40 40 44 46 45 43 42 45 53 69 86 88 81 77 79 83 87 92 96 98 99 95 88 87 88 87 87 85 82 82 83 80 80 81 80 74 67 65 65 62 61 61 63 65 65 65 65
81 81 81 81 82 83 84 85 87 88 89 91 92 92 93 94 96 98 100 101 96 87 77 70 62 54 48 44 40 37 37 39 41 42 43 43 42 41 39 40 44 46 45 41 41 46 55 72 86 85 76 73 75 80 86 92 96 98 98 95 88 86 88 87 87 85 82 80 80 82 82 80 78 75 70 66 63 61 60 61 61 62 63 63 64
80 80 80 81 82 83 84 85 86 88 89 91 92 92 93 95 97 100 100 98 90 79 69 63 57 52 47 41 37 37 38 40 42 42 42 41 40 39 38 40 45 46 44 41 41 47 57 73 84 83 74 70 71 75 81 87 93 97 98 93 87 86 88 88 88 87 82 78 77 80 81 78 75 72 69 66 64 61 60 60 59 59 60 62 63
79 79 80 81 82 83 84 85 86 87 89 91 92 93 94 95 98 100 99 93 83 70 62 58 55 50 45 39 35 37 39 41 43 43 40 37 37 38 37 39 45 46 44 41 41 48 59 73 83 81 72 67 67 70 76 82 87 92 95 91 85 87 91 90 90 89 83 79 78 78 78 77 73 69 67 66 65 61 59 58 56 57 59 61 62
78 79 80 81 82 83 84 85 86 88 90 91 92 93 94 96 98 98 94 86 74 62 57 57 53 47 43 38 36 37 40 43 45 42 37 34 35 36 35 39 45 46 44 42 43 49 60 73 81 78 70 65 64 67 73 78 81 86 89 85 82 88 93 91 90 89 85 81 78 77 77 76 73 70 68 67 64 60 58 57 55 56 59 61 62
78 79 80 81 82 83 84 85 86 88 90 91 92 93 95 96 97 95 89 77 64 55 54 56 51 43 39 38 36 36 40 45 46 40 33 32 34 35 35 39 45 47 45 44 45 50 61 73 77 74 68 64 64 67 72 74 77 81 82 79 79 88 92 89 87 88 87 83 76 73 73 71 70 69 67 67 66 63 61 59 58 58 59 60 61
77 79 80 81 82 83 84 85 87 89 90 91 92 94 95 96 95 91 82 69 58 52 53 54 48 40 37 37 37 36 40 45 44 36 30 30 32 34 35 39 45 48 46 46 47 52 63 73 75 70 66 64 65 68 70 71 74 77 77 74 76 85 89 87 86 87 86 81 75 71 69 66 64 63 63 65 67 66 64 63 61 60 60 61 61
77 78 80 81 82 83 84 86 88 89 90 91 93 94 95 95 92 84 73 62 54 51 52 50 44 39 37 37 37 37 39 43 40 32 28 29 31 33 35 39 46 49 48 47 48 54 64 74 75 70 65 64 67 69 68 69 71 73 74 73 75 82 87 87 86 86 83 79 74 72 70 66 63 61 61 63 66 65 64 64 63 63 63 62 60
77 78 79 81 82 83 85 86 88 89 90 92 93 94 94 92 87 76 64 56 54 53 51 47 41 38 37 37 38 38 39 39 36 30 27 28 31 33 36 41 47 50 50 48 49 55 65 74 76 71 66 66 69 69 68 68 69 71 75 75 76 80 85 86 86 84 82 80 77 75 73 68 65 64 63 63 65 65 65 64 63 63 63 62 61
76 78 79 80 82 84 85 86 88 89 90 92 93 93 92 88 81 68 56 53 55 55 51 44 39 36 36 37 38 38 39 37 32 28 26 27 31 33 37 42 48 52 52 49 49 55 65 74 77 73 67 67 68 69 69 70 70 72 75 76 78 80 82 83 83 80 78 78 76 75 75 72 70 69 67 66 65 65 65 66 66 65 63 62 63
76 77 79 80 82 84 85 86 87 89 90 91 91 91 89 84 74 61 52 52 56 56 51 43 37 35 35 36 37 38 38 36 31 28 27 27 30 33 38 44 50 53 53 49 50 57 66 75 79 74 68 67 68 70 72 72 72 74 75 75 78 82 83 83 81 77 74 75 75 73 73 74 75 73 70 69 65 63 65 67 67 67 65 64 64
75 76 78 80 82 83 84 85 87 89 90 90 89 88 84 78 67 56 49 51 56 56 50 41 36 34 35 36 36 37 38 36 30 28 29 29 29 32 38 46 51 55 53 50 51 58 67 76 79 74 69 68 68 71 73 73 73 74 76 76 79 84 85 83 79 75 73 74 75 73 71 72 73 72 71 70 67 64 64 64 64 67 67 65 64
74 76 78 79 81 83 84 85 87 88 88 88 87 84 80 72 61 52 48 50 54 54 48 39 34 33 34 35 35 36 38 35 30 28 29 30 29 30 37 47 53 56 54 51 53 59 67 76 79 76 71 69 70 73 74 73 72 73 76 78 78 80 83 82 78 75 74 73 73 73 70 68 70 71 71 71 69 67 66 63 61 64 67 67 65
74 75 77 79 81 82 83 85 86 87 87 86 84 80 75 67 56 49 47 49 51 51 47 39 33 31 32 34 34 35 36 35 30 27 28 29 28 29 36 47 54 56 54 52 54 60 67 75 79 79 74 70 72 75 75 74 73 73 76 78 76 73 76 79 79 77 75 74 73 72 70 68 69 71 70 69 69 69 69 66 63 62 65 67 66
73 75 77 78 80 81 83 84 85 85 85 83 81 77 71 63 53 47 46 48 48 46 44 40 35 32 31 31 32 34 35 34 30 27 27 27 27 27 35 46 52 54 53 51 54 60 68 75 80 80 76 72 74 78 77 75 74 74 76 78 76 71 70 74 78 78 77 75 73 71 69 68 69 70 69 68 68 69 70 69 64 61 63 66 66
72 74 76 77 79 81 81 82 83 82 81 79 76 72 67 60 51 45 45 46 45 41 39 38 37 35 33 32 32 32 31 31 28 25 24 24 24 25 34 45 50 52 50 49 52 60 68 76 81 81 77 74 74 78 79 77 77 77 76 77 78 74 70 71 75 78 78 75 73 71 70 69 70 71 70 68 68 68 68 67 64 61 61 63 65
71 73 75 76 78 80 80 80 80 79 77 73 70 67 62 57 50 46 45 44 40 35 33 33 33 33 33 33 32 30 29 28 26 23 21 21 22 24 34 44 48 50 49 47 50 59 68 77 81 81 78 76 75 78 80 80 79 79 78 78 78 77 74 71 71 73 74 73 72 71 71 70 71 73 72 70 68 68 67 65 63 61 60 61 64
70 72 74 76 77 78 79 78 77 75 72 67 64 61 57 52 49 46 46 44 37 30 29 30 29 29 30 32 31 28 27 26 23 21 19 18 20 23 33 43 46 47 48 46 48 56 67 76 80 80 78 76 75 78 81 81 81 80 79 78 79 78 76 73 71 71 71 71 73 74 73 71 71 73 74 72 70 68 67 65 63 62 62 62 63
69 71 73 75 76 77 77 77 75 72 68 62 59 58 56 50 46 45 47 47 40 32 29 29 29 27 27 29 29 27 25 23 21 18 16 15 18 24 33 41 44 46 47 46 46 53 63 73 78 79 78 75 75 78 81 81 81 81 79 78 78 78 77 75 73 74 74 74 75 76 74 71 70 71 74 74 72 70 69 66 64 63 62 62 62
68 70 72 73 74 75 75 74 72 69 64 58 53 54 56 53 47 44 46 48 46 40 35 32 30 27 26 26 27 26 23 22 20 17 14 13 17 26 34 39 43 45 46 45 45 49 59 69 76 79 79 75 74 77 80 81 81 81 80 79 79 77 74 70 68 71 74 75 75 74 72 72 71 72 74 75 73 72 70 68 65 63 62 61 61
67 69 70 71 73 73 73 72 70 66 61 55 49 47 50 51 49 45 45 48 48 44 39 33 28 26 25 25 25 24 23 22 20 17 14 12 17 26 34 38 41 44 45 45 45 48 56 67 75 80 80 77 75 76 78 79 79 78 78 79 79 77 74 69 67 68 70 72 73 73 72 73 73 74 76 75 73 72 71 68 66 65 63 61 61
65 67 69 70 71 72 71 70 67 63 58 52 47 44 43 44 43 42 42 46 48 45 40 35 30 27 26 24 23 23 24 24 22 17 14 13 17 26 34 37 40 43 45 45 46 49 57 67 75 81 81 78 75 75 76 76 75 74 74 75 75 74 73 71 71 70 70 70 72 72 72 73 74 76 77 76 74 72 70 67 65 64 63 62 62
64 65 67 68 69 70 70 68 65 61 56 50 46 44 42 39 37 35 34 38 43 44 42 37 32 29 28 26 23 23 24 25 22 17 14 14 16 25 34 38 40 42 44 44 45 50 59 69 77 82 83 80 76 75 74 73 72 72 71 71 70 69 69 70 73 74 72 71 72 72 72 73 74 76 77 76 74 72 70 67 66 64 63 63 63
62 64 65 67 68 69 69 66 62 58 53 49 45 44 43 40 37 34 31 30 33 38 39 36 31 27 26 26 25 24 25 25 21 16 14 15 17 23 32 38 41 42 42 42 43 48 59 71 79 84 85 82 78 76 74 72 70 70 69 68 67 67 69 72 75 76 75 74 73 73 73 74 74 74 75 74 73 72 70 69 67 66 64 63 63
61 63 64 66 67 68 68 65 60 55 50 48 45 44 43 41 38 35 32 31 32 35 37 37 33 27 23 22 22 22 24 24 19 14 14 16 19 23 30 37 41 42 41 41 42 46 57 70 80 85 85 82 79 77 75 72 70 70 69 68 69 71 75 77 78 78 78 77 75 75 76 76 75 74 74 73 72 71 71 70 68 67 64 63 63
60 62 64 65 67 68 67 64 59 53 48 46 45 45 44 42 39 36 33 31 32 34 36 36 35 30 26 23 22 21 22 21 17 13 13 15 19 23 28 34 39 42 42 40 40 43 53 67 79 85 85 82 79 78 76 73 72 72 72 72 73 77 80 82 81 80 80 79 77 77 78 78 77 76 74 72 71 71 71 71 69 68 66 64 64
58 61 63 65 67 68 68 65 59 52 46 44 45 45 44 42 40 36 33 30 29 31 33 33 31 29 27 25 23 21 20 19 16 13 13 15 18 23 28 32 37 40 42 41 40 41 49 62 75 83 85 82 80 78 76 74 74 74 75 75 76 79 82 82 81 81 80 79 79 79 79 78 77 76 73 71 70 71 71 71 71 69 66 65 64
57 59 61 64 66 68 68 65 59 52 46 43 44 45 45 42 39 36 33 30 27 27 30 31 28 25 24 23 21 19 18 18 17 15 14 14 17 22 27 31 35 39 41 41 41 41 46 57 71 81 83 82 80 78 77 76 75 75 77 77 76 78 80 80 78 78 78 78 79 79 78 77 75 72 70 69 70 70 71 71 71 70 68 67 66
57 58 60 63 65 67 68 65 59 52 45 42 43 44 44 42 39 35 33 31 27 25 28 30 28 24 21 20 19 18 18 17 17 17 17 15 16 20 25 31 35 38 40 41 41 42 45 54 67 79 83 82 79 77 76 77 76 76 77 77 77 79 79 77 75 75 76 76 76 76 75 74 71 68 67 67 67 67 68 69 70 71 69 67 66
56 58 60 62 64 67 68 66 60 52 45 41 42 43 43 42 38 34 32 31 27 24 25 28 27 23 19 16 16 16 16 16 17 19 20 19 18 19 23 28 34 38 40 41 41 42 45 52 65 77 82 82 79 77 76 76 76 75 75 76 77 80 80 77 75 75 75 74 74 74 73 71 69 67 65 65 64 63 62 63 66 67 66 64 63
55 57 59 61 63 66 67 66 60 52 44 41 41 42 42 41 38 33 31 30 28 24 23 25 26 23 20 16 14 14 14 14 14 15 17 18 18 18 20 25 28 33 38 40 41 42 44 51 63 75 81 81 79 76 75 75 74 74 75 76 77 80 80 78 78 78 77 75 75 75 73 71 68 66 65 63 62 61 59 59 61 62 61 61 60
55 57 59 61 63 65 66 66 61 53 44 40 40 40 40 40 38 33 29 29 28 25 22 23 24 23 21 19 16 13 11 10 11 11 13 15 17 18 19 21 23 26 32 37 39 41 44 50 61 73 80 81 79 77 75 74 73 73 75 77 78 80 81 80 80 80 79 78 77 77 75 73 70 67 65 65 64 62 62 61 62 61 61 60 60
55 57 59 60 62 64 65 65 61 53 44 40 39 39 38 38 38 34 29 27 27 24 21 21 21 21 21 20 19 15 11 8 8 9 10 14 18 20 21 21 21 22 26 31 34 38 42 49 59 71 79 81 80 78 75 73 72 72 73 76 78 80 80 79 80 81 82 81 79 77 76 74 72 70 68 68 68 66 65 65 65 65 64 62 60
54 56 58 60 61 63 64 64 60 54 45 39 38 38 37 36 36 34 30 27 26 24 21 19 19 19 19 19 19 17 13 9 8 9 9 11 16 20 23 25 25 25 27 29 30 34 39 47 57 69 78 81 80 78 76 74 72 70 71 74 76 78 79 79 80 82 83 81 79 77 76 75 74 73 71 69 69 69 68 67 67 67 66 65 63
54 56 58 59 61 62 63 62 59 53 45 39 37 37 35 34 34 34 31 28 25 24 22 20 18 17 16 17 18 17 14 10 8 8 9 10 11 15 20 23 24 26 30 33 32 33 36 44 55 68 77 80 79 78 76 73 71 69 68 70 72 75 77 79 80 81 80 79 77 76 76 75 75 74 71 68 67 67 68 68 68 69 69 68 66
55 56 57 59 60 61 62 61 58 52 45 39 37 36 34 32 32 33 32 28 26 24 22 20 19 17 15 15 16 16 14 12 8 7 8 10 9 10 14 17 20 24 30 36 37 36 36 41 51 65 74 78 77 77 75 73 70 68 67 67 69 71 74 76 78 79 79 78 77 76 76 76 75 73 71 68 65 64 65 66 68 70 71 69 67
55 56 57 58 59 61 61 60 57 51 44 39 36 35 33 31 30 31 31 29 26 24 23 21 20 18 15 13 13 14 13 12 10 7 6 9 9 9 10 13 16 20 26 34 38 39 39 40 48 60 69 73 74 75 74 72 69 67 66 66 67 69 71 73 74 75 76 76 76 75 75 75 73 71 70 68 67 65 66 66 68 71 73 71 67
55 56 56 57 58 60 60 59 56 50 43 38 36 35 33 30 29 29 29 29 27 25 23 21 20 19 17 14 12 12 11 11 9 7 5 6 8 9 10 12 14 16 21 29 36 40 41 42 46 54 62 66 68 70 72 70 68 66 65 64 65 68 70 71 72 73 72 72 71 71 71 71 70 70 70 70 69 69 70 70 70 72 75 74 70
55 56 56 56 58 59 59 57 54 48 41 37 35 34 32 30 28 28 28 28 26 25 23 22 20 20 19 16 14 12 11 10 8 7 5 4 6 8 10 13 14 15 18 24 31 36 40 43 45 50 55 58 61 66 69 69 68 66 64 63 63 64 67 69 71 72 73 72 71 70 69 69 70 70 71 72 72 72 72 72 72 74 77 76 73
56 56 56 56 57 58 58 56 52 46 40 36 35 33 31 30 28 27 26 26 25 24 22 21 20 20 20 18 16 14 12 10 9 7 6 4 3 5 8 12 15 16 17 20 25 31 36 41 45 49 52 54 57 62 66 68 68 66 65 64 63 63 63 65 67 69 71 73 73 73 72 72 72 73 73 74 74 73 72 71 72 74 76 76 73
56 56 55 56 57 57 57 55 50 43 38 36 34 32 31 29 28 27 26 25 24 24 22 21 20 19 19 19 18 16 14 12 10 8 6 5 3 3 5 9 13 16 18 19 21 25 31 37 43 47 51 53 56 60 64 67 68 67 65 65 65 64 64 64 64 65 67 69 71 74 76 77 77 77 78 78 77 76 74 72 71 72 73 72 71
Wind_Direction
304 304 305 306 307 308 309 310 311 311 311 310 311 312 313 313 314 314 314 314 314 314 314 314 313 313 313 312 311 309 304 291 281 283 280 273 268 269 270 265 260 256 251 245 234 226 226 227 227 224 211 202 199 197 199 200 201 204 207 210 212 211 210 211 214 217 218 219 220 219 216 216 217 220 223 225 226 226 226 223 221 222 224 225 226
304 304 305 306 307 308 309 311 311 311 311 311 312 313 313 314 314 314 314 315 315 315 315 314 313 313 313 312 310 307 300 288 283 284 279 272 270 272 272 268 264 258 248 239 228 223 225 226 226 222 208 200 197 197 199 200 201 204 207 209 211 212 208 207 210 213 212 213 215 215 214 214 216 218 220 222 223 225 224 220 217 218 220 222 222
304 305 306 307 308 309 310 311 311 311 311 312 313 313 314 314 314 314 315 315 315 315 315 314 313 313 313 311 309 304 295 286 285 285 277 272 273 275 275 272 267 256 240 230 223 221 223 224 225 219 206 198 196 197 198 200 200 203 207 208 210 211 208 206 207 209 208 209 211 213 213 214 215 217 219 220 221 222 225 224 220 217 216 216 216
304 305 306 308 309 310 311 311 311 311 312 312 313 314 314 314 314 315 315 316 316 316 315 314 314 313 313 311 307 300 291 286 287 283 275 273 276 277 277 274 264 247 230 222 219 220 222 223 223 215 204 198 196 196 197 198 200 202 205 208 209 209 209 207 206 206 206 207 210 212 213 214 215 216 219 220 219 219 222 224 224 222 219 218 219
304 306 307 309 310 311 311 311 311 312 312 313 314 314 314 314 314 315 316 316 316 316 315 314 314 313 313 310 305 296 289 287 287 280 274 274 278 278 278 272 256 236 223 218 217 218 220 221 219 212 203 198 195 195 195 196 198 201 202 205 207 206 206 208 206 204 204 206 207 210 212 213 214 216 218 219 219 219 220 220 221 222 221 220 221
305 307 308 310 311 311 311 311 312 312 313 313 314 314 314 314 315 316 316 316 317 316 315 315 314 314 313 309 301 293 289 289 285 277 273 276 279 279 276 267 246 228 221 217 216 218 219 217 214 209 202 197 194 194 194 195 197 200 200 201 203 203 204 207 208 203 202 204 205 207 209 211 213 214 214 215 217 218 218 217 217 218 219 219 220
306 308 309 310 311 311 311 312 312 313 313 314 314 314 315 315 316 316 316 317 317 317 316 315 314 314 312 308 299 292 291 289 282 274 273 277 279 277 273 260 239 225 220 218 217 221 221 215 210 207 201 196 194 194 195 196 197 199 201 200 200 201 202 207 208 202 200 203 204 205 208 210 212 213 212 212 213 215 216 217 218 217 218 218 218
308 309 310 311 311 311 312 312 313 313 313 314 314 315 315 316 316 317 317 318 318 317 316 315 314 313 311 305 297 294 293 287 278 274 275 278 279 275 268 253 235 224 220 218 220 224 221 213 207 202 197 195 194 194 195 198 199 200 202 202 201 200 202 207 205 199 198 201 203 205 207 209 210 211 211 211 211 211 213 216 218 219 219 218 218
310 310 311 311 311 312 312 312 313 313 314 314 315 315 316 316 317 317 318 319 318 317 316 315 314 313 310 304 299 296 292 284 276 276 278 280 278 271 263 248 232 225 221 219 222 225 219 210 203 197 193 193 194 195 196 199 202 203 205 205 202 200 203 205 201 197 198 201 202 204 205 207 210 210 210 210 211 212 214 215 216 216 217 217 217
310 310 310 311 311 312 313 313 313 314 314 315 315 317 317 317 318 318 319 319 318 317 316 314 313 312 308 304 301 295 289 280 277 279 281 282 277 267 259 244 229 224 221 220 224 224 216 206 199 194 191 190 192 196 198 201 203 205 206 205 200 197 201 201 197 195 198 201 203 204 205 206 209 209 210 211 212 214 216 217 217 217 216 215 215
310 310 310 311 312 312 313 313 314 314 314 315 316 317 318 318 318 319 320 319 318 318 316 313 312 310 306 304 300 292 285 280 280 283 284 283 275 263 254 240 226 222 221 220 224 223 213 203 196 193 191 188 190 195 198 201 204 205 206 203 197 195 197 196 193 195 198 200 203 205 206 207 208 210 212 214 214 215 217 218 220 220 219 217 216
310 310 310 311 312 312 313 314 314 314 315 316 317 318 318 319 320 320 320 318 318 318 314 311 311 309 305 303 296 289 285 282 284 286 286 282 272 260 251 237 224 220 220 221 223 220 210 202 196 193 192 189 188 192 196 199 201 203 203 201 196 194 196 194 192 194 197 199 203 206 208 210 211 212 214 216 216 217 218 219 220 220 220 219 218
309 310 311 311 312 313 313 314 314 315 316 317 318 319 319 320 320 320 319 319 318 317 313 311 311 309 306 302 293 288 287 285 288 290 287 279 268 257 248 234 222 218 218 220 222 217 208 202 198 195 193 189 188 191 195 197 198 200 200 199 195 194 195 194 193 194 196 199 203 208 210 211 213 214 215 215 216 216 217 218 219 219 220 219 219
309 310 311 312 313 313 314 314 314 315 317 318 319 319 320 321 321 320 319 319 318 316 313 311 311 309 305 299 292 291 291 289 292 292 286 274 262 254 246 232 221 217 217 219 221 215 207 202 199 196 193 190 189 191 194 195 195 196 197 197 196 195 196 196 194 194 195 198 203 209 211 212 214 215 214 214 215 216 217 218 218 220 220 220 219
310 311 311 312 313 314 314 314 315 316 318 318 319 320 321 321 321 319 319 320 318 316 314 312 311 309 303 297 294 295 295 295 296 293 282 267 256 252 244 230 220 215 215 219 220 214 206 202 199 196 193 191 191 192 194 195 194 194 195 196 194 194 196 197 195 195 195 197 203 208 210 210 212 213 212 212 212 213 215 216 217 218 219 219 219
311 311 312 313 313 314 314 315 316 317 318 319 320 321 321 321 320 319 320 320 317 316 316 313 311 307 302 298 297 299 300 300 299 292 276 259 252 249 242 228 219 214 214 218 219 213 206 201 198 196 194 192 191 191 193 196 194 192 192 193 191 193 196 196 194 195 195 198 204 207 207 207 208 208 209 210 210 209 210 211 213 214 215 217 218
311 312 312 313 314 314 315 316 317 318 319 320 321 322 322 322 320 320 321 320 317 317 318 315 311 306 300 298 299 301 303 303 299 289 271 255 249 247 240 226 217 214 214 216 217 212 205 201 198 196 194 192 192 192 194 196 194 192 191 190 188 191 194 194 193 194 196 200 204 205 204 204 205 206 208 209 208 208 208 210 211 212 214 216 216
311 312 313 313 314 314 315 316 318 319 320 321 321 322 323 322 321 322 322 320 318 319 319 317 312 305 300 299 299 301 305 304 297 284 268 254 247 245 238 224 216 214 214 215 214 210 205 201 199 197 194 192 192 193 196 197 194 191 190 187 186 188 191 192 193 195 198 202 203 203 205 205 205 207 210 210 210 210 210 212 213 213 214 214 215
311 312 313 313 314 315 316 317 319 320 321 322 322 323 323 322 323 324 323 321 320 320 320 318 312 305 301 300 300 303 307 306 296 283 269 256 248 244 236 223 215 213 213 213 212 208 205 202 199 196 194 192 192 195 198 198 196 193 190 187 186 188 189 191 193 195 198 201 202 204 206 206 206 208 210 210 210 212 213 213 214 214 215 214 214
311 312 313 314 314 315 317 318 320 321 322 323 323 324 324 323 324 325 324 322 322 321 321 318 311 304 301 301 302 305 310 309 298 286 275 262 251 244 233 221 214 212 212 211 209 206 203 200 198 195 193 192 193 195 198 198 197 195 191 187 188 190 190 191 192 194 197 200 202 204 206 206 206 207 207 207 209 211 213 214 215 215 216 216 216
312 312 313 314 315 316 318 320 321 322 323 324 324 325 325 324 325 326 324 324 323 322 321 318 311 304 301 302 304 308 312 312 302 291 285 271 256 244 231 219 213 212 212 209 206 204 201 198 196 194 193 193 193 194 197 198 198 197 192 188 188 190 191 190 190 192 196 199 200 202 204 205 205 204 205 206 208 209 211 215 216 216 217 219 219
312 313 314 315 316 317 319 320 322 323 324 325 325 325 325 325 326 326 324 325 325 322 321 317 310 304 302 304 307 310 313 313 305 296 292 280 263 245 229 217 212 211 211 208 204 203 200 197 195 194 195 195 194 194 195 195 194 193 191 188 188 189 190 189 190 193 195 197 200 202 204 205 205 204 203 205 207 209 211 215 218 218 219 221 222
312 313 314 316 317 318 320 321 323 324 325 325 326 326 326 326 326 325 324 325 325 323 320 316 309 304 303 307 309 311 314 313 306 299 295 285 270 249 227 214 209 210 209 206 204 202 200 197 196 196 197 196 194 194 194 193 191 189 188 187 188 189 190 190 191 195 197 198 201 203 204 205 204 204 204 204 207 210 212 215 218 220 220 221 223
312 314 315 316 318 319 321 323 324 325 326 326 326 326 326 326 325 323 323 325 326 324 320 315 308 302 303 308 310 311 314 312 306 302 298 287 273 252 226 211 207 208 208 205 203 202 200 199 198 197 198 198 195 194 194 192 191 190 189 188 189 191 193 193 193 195 198 200 202 204 205 205 205 205 206 206 209 211 213 214 217 219 219 219 221
312 314 315 317 319 320 322 324 325 326 327 327 326 326 326 326 324 322 321 324 327 326 319 312 307 303 303 308 309 310 313 311 306 304 300 287 272 251 223 207 203 206 208 207 204 202 201 200 199 198 199 200 196 194 194 193 193 193 192 192 193 195 196 197 196 196 198 201 203 204 205 205 205 206 207 208 210 212 214 215 216 218 218 217 218
313 315 316 318 319 321 323 325 327 327 327 327 326 326 326 325 323 321 321 323 327 326 317 308 305 304 306 309 310 310 312 309 305 305 302 286 270 246 217 204 200 201 204 206 206 204 202 200 199 199 201 202 198 194 193 194 194 195 194 194 196 198 199 200 200 198 198 200 203 204 205 206 207 207 207 208 211 213 215 216 217 217 218 218 217
313 315 317 319 320 322 325 327 328 328 328 327 326 325 325 325 322 320 320 322 325 324 315 307 304 306 308 311 312 313 313 309 305 306 302 284 263 237 211 200 197 197 200 203 205 205 203 201 200 200 201 203 200 194 192 193 195 196 197 198 199 200 201 203 204 203 201 202 203 205 206 207 208 208 207 208 211 214 216 217 217 217 218 218 217
314 316 318 319 321 324 326 328 330 330 328 327 325 324 324 324 321 319 321 323 324 320 313 307 305 309 313 314 314 315 316 311 306 306 302 281 255 228 206 198 195 195 198 201 204 205 204 202 201 201 201 203 201 195 192 193 195 196 198 199 201 202 203 205 207 207 206 205 206 207 208 209 210 211 209 209 211 213 215 216 216 216 217 217 217
315 317 319 321 323 325 328 330 331 331 329 327 325 325 325 324 321 320 323 327 327 322 316 310 306 310 316 316 313 314 318 315 307 304 301 278 246 219 202 196 195 195 199 203 205 205 204 203 202 200 200 204 203 198 194 193 195 196 197 198 200 202 203 204 206 208 209 209 209 209 210 211 212 213 212 211 211 212 214 215 215 215 216 217 218
316 318 320 322 324 327 329 331 332 332 330 328 326 326 327 326 324 322 324 327 329 327 323 316 308 307 314 316 312 310 315 318 311 303 297 275 238 214 201 196 195 197 201 205 207 206 204 202 201 199 199 204 205 201 197 196 196 197 197 197 198 199 199 200 204 207 209 210 211 211 212 213 214 214 212 211 211 213 214 216 216 217 218 219 221
317 319 322 324 326 329 331 332 332 332 330 328 325 326 327 327 326 325 324 325 327 327 325 320 311 305 309 314 311 306 309 316 314 301 288 267 233 212 202 198 197 200 204 208 210 207 203 201 199 198 199 203 205 202 200 199 199 199 200 199 200 201 202 204 207 208 209 210 211 211 212 213 214 215 213 211 211 213 214 216 218 219 220 221 223
319 321 323 326 328 331 332 333 333 332 330 327 324 324 326 325 324 325 325 324 325 325 325 325 319 311 308 310 309 304 305 312 313 299 279 258 231 213 204 200 200 202 206 210 212 208 202 199 198 197 199 203 205 203 201 200 201 202 202 202 203 205 207 210 212 213 212 211 212 213 213 213 214 215 213 212 211 212 214 216 219 220 220 221 223
321 324 326 329 331 333 335 335 333 331 329 326 322 322 324 323 320 319 322 326 327 326 326 326 322 315 310 308 306 303 302 306 308 296 271 249 230 216 208 204 202 205 208 212 214 210 203 198 197 197 199 203 204 203 202 202 203 204 203 203 203 206 208 210 212 214 215 214 214 214 214 213 213 213 213 213 212 213 214 216 218 219 220 221 222
324 326 329 331 334 336 337 336 334 331 328 325 322 322 323 323 319 316 316 321 326 326 326 325 323 318 312 308 306 303 302 304 304 292 266 243 227 217 213 208 206 207 210 212 215 212 205 199 196 198 200 202 203 203 202 202 203 204 204 203 204 206 208 210 212 214 215 215 215 214 214 214 213 213 213 212 213 214 215 216 217 218 219 220 222
326 329 331 334 336 338 339 338 334 330 327 324 322 321 322 322 321 318 315 317 323 327 329 329 328 322 314 310 307 305 305 303 298 287 266 244 225 217 215 212 210 210 212 213 214 213 206 199 196 197 201 203 203 203 203 201 201 202 203 203 203 204 206 209 211 213 214 214 213 213 214 214 215 214 214 213 214 215 215 216 217 218 219 220 222
329 331 334 336 338 340 341 339 335 330 326 323 321 321 323 323 321 319 318 318 324 329 332 333 333 328 321 317 315 312 308 300 290 280 270 251 229 217 214 214 213 213 214 214 215 214 209 201 196 196 199 202 203 203 204 202 200 200 202 202 202 203 205 207 209 211 212 212 212 213 214 215 215 215 215 215 215 216 216 216 217 218 219 220 221
331 334 336 338 340 342 342 341 336 331 325 322 320 321 324 324 321 319 318 318 323 328 330 333 336 334 328 325 322 316 306 296 286 279 272 258 238 222 214 213 214 215 215 216 215 214 211 204 198 196 198 201 202 203 204 203 202 201 200 200 200 201 203 205 206 208 209 210 211 212 214 215 216 217 217 216 215 216 216 216 217 218 219 220 222
333 335 338 339 341 343 343 342 338 331 325 322 320 321 324 324 321 318 317 317 320 324 327 329 334 337 333 327 323 316 303 291 283 275 263 251 240 229 218 213 213 214 216 216 216 215 213 207 199 196 198 200 202 202 203 203 202 201 199 198 197 199 201 202 204 205 207 208 210 212 213 214 216 216 217 216 215 215 216 216 217 218 219 221 223
333 336 338 340 341 343 343 342 338 331 324 321 319 320 324 325 321 316 315 316 316 319 324 327 332 338 336 328 321 315 303 290 278 268 256 245 238 233 224 216 213 213 215 217 215 214 214 209 201 197 197 199 201 202 202 202 203 201 199 198 198 198 199 200 202 204 206 208 210 211 212 213 213 214 215 216 216 216 217 218 219 220 221 223 225
333 335 338 340 341 342 343 342 338 331 324 319 318 320 323 325 321 314 312 314 314 315 320 324 329 336 340 329 315 308 304 293 278 265 255 244 238 234 228 219 213 212 214 216 216 214 214 210 203 197 197 199 201 202 202 202 203 202 200 198 199 200 200 200 201 204 206 208 210 211 212 212 212 213 214 215 217 218 220 221 222 222 224 226 229
331 334 337 339 340 341 342 342 338 332 323 317 317 319 322 325 323 315 310 312 313 312 315 322 327 336 344 340 324 313 308 297 280 265 252 241 234 229 220 212 209 209 211 214 215 215 214 211 204 198 196 198 200 201 202 203 204 203 201 199 199 199 200 201 201 203 205 207 210 211 211 211 212 215 216 217 218 219 220 222 224 225 226 228 230
330 332 335 337 339 340 341 340 338 332 323 316 315 317 321 325 325 317 310 310 312 310 311 319 327 336 345 346 340 330 316 297 278 263 250 240 234 226 213 204 204 206 208 211 213 213 213 211 205 199 197 198 200 201 203 204 205 204 202 200 198 198 199 200 201 202 204 207 210 212 212 211 212 215 217 219 220 220 219 220 222 225 227 229 230
328 330 333 335 337 338 339 338 337 332 323 315 313 316 320 324 325 321 311 307 310 310 308 314 324 334 341 346 346 343 332 308 280 261 247 239 235 231 223 217 215 212 207 207 209 211 212 211 207 201 197 198 199 201 203 206 207 206 204 202 200 199 199 200 202 204 206 209 211 213 213 213 214 215 217 218 220 221 220 219 220 223 226 228 229
326 328 330 333 335 336 337 337 335 332 324 314 311 314 318 321 324 324 316 308 308 310 307 307 316 328 336 342 346 348 344 327 294 266 250 239 233 229 227 228 227 222 213 208 208 209 210 210 207 202 199 198 199 201 203 206 208 209 207 204 202 201 201 201 204 207 210 212 213 215 216 216 217 217 219 220 221 222 221 220 220 222 225 228 229
324 326 328 330 332 334 335 335 334 331 324 314 309 312 316 319 323 325 320 311 306 308 307 304 306 316 327 334 339 343 347 341 312 276 257 247 235 225 223 224 224 220 214 209 205 205 207 209 208 204 200 198 198 199 201 205 208 209 209 206 205 204 204 204 206 209 212 214 216 216 217 219 219 221 223 225 225 225 225 224 222 222 225 228 230
322 324 326 328 330 332 333 333 332 330 324 315 309 310 314 317 320 323 323 316 307 305 306 303 299 304 315 324 330 337 344 347 335 298 264 252 242 227 219 216 214 213 211 208 204 201 203 207 208 205 201 199 198 198 199 202 205 207 209 209 208 207 206 206 207 209 211 214 215 216 218 219 220 222 224 225 226 228 229 229 226 224 225 228 230
320 322 324 326 329 331 331 331 331 329 323 315 309 307 311 315 317 320 323 321 312 304 303 302 298 297 301 311 320 328 337 343 343 324 280 257 246 230 217 212 210 210 211 210 206 201 199 203 206 206 203 201 199 198 199 201 203 205 208 211 211 210 208 208 208 209 210 212 214 215 217 218 220 222 224 225 227 229 232 232 230 227 226 227 229
319 321 323 324 327 329 329 330 329 327 322 315 309 306 308 312 315 317 320 322 317 308 303 301 299 295 293 297 305 314 323 334 340 337 309 268 248 233 217 211 210 209 210 211 209 203 197 198 203 205 205 204 202 200 200 201 203 205 207 211 214 215 214 212 210 210 210 212 213 215 217 219 222 225 227 229 230 231 231 231 230 229 227 228 229
317 319 321 323 325 327 328 328 328 325 321 315 310 307 307 310 313 314 316 320 320 314 305 300 299 297 293 291 293 298 308 320 331 340 342 306 259 238 221 212 210 208 207 209 209 205 199 197 199 203 205 206 205 203 202 203 204 205 207 210 214 217 219 219 218 216 215 215 217 218 220 222 224 226 228 230 230 230 229 229 228 228 227 228 229
316 318 320 322 324 325 326 327 326 323 319 315 310 306 305 308 310 311 312 315 319 318 311 302 298 297 295 292 288 288 295 307 318 328 338 333 290 248 226 215 212 209 207 206 207 207 203 199 198 200 204 206 206 205 204 205 205 207 208 210 212 215 219 221 223 223 223 223 223 223 223 223 224 225 227 228 229 229 230 230 228 227 227 227 228
316 318 319 321 322 324 325 325 324 321 317 314 310 305 305 306 308 309 309 310 314 318 316 308 301 297 296 294 290 285 284 290 299 306 313 317 310 273 235 220 214 212 210 207 206 206 206 203 200 200 203 205 207 207 206 206 207 208 209 211 212 214 216 219 221 223 224 225 226 225 224 223 224 226 228 230 231 230 230 230 229 226 225 225 225
Height
5529 5522 5515 5508 5502 5496 5490 5484 5478 5472 5467 5461 5455 5450 5444 5438 5432 5425 5419 5411 5403 5395 5388 5380 5371 5363 5355 5346 5338 5332 5327 5324 5322 5320 5320 5321 5321 5321 5320 5318 5319 5323 5326 5329 5334 5341 5348 5354 5359 5365 5370 5377 5386 5398 5410 5422 5433 5444 5455 5465 5474 5483 5492 5500 5508 5518 5526 5534 5543 5550 5557 5562 5567 5572 5578 5583 5588 5595 5601 5606 5611 5615 5620 5624 5628
5520 5514 5508 5501 5494 5488 5482 5476 5470 5465 5459 5453 5447 5441 5436 5429 5422 5415 5409 5401 5393 5384 5376 5369 5360 5351 5343 5335 5327 5321 5317 5314 5313 5311 5310 5310 5310 5310 5309 5307 5307 5310 5313 5318 5325 5331 5338 5344 5350 5354 5360 5368 5379 5391 5403 5414 5425 5436 5446 5456 5467 5476 5485 5493 5501 5509 5517 5525 5534 5542 5549 5555 5560 5566 5572 5577 5583 5590 5595 5600 5604 5609 5614 5619 5623
5512 5506 5500 5493 5486 5480 5474 5468 5463 5457 5451 5445 5440 5433 5427 5420 5413 5406 5399 5391 5384 5375 5365 5357 5348 5339 5332 5324 5316 5311 5307 5305 5304 5302 5300 5300 5301 5299 5298 5296 5295 5296 5301 5308 5316 5322 5328 5335 5340 5344 5351 5360 5372 5384 5396 5406 5417 5429 5439 5448 5459 5469 5479 5486 5492 5500 5509 5518 5527 5535 5542 5548 5554 5561 5567 5573 5579 5584 5589 5595 5599 5603 5607 5612 5617
5503 5497 5492 5485 5478 5471 5466 5461 5455 5449 5443 5437 5432 5426 5419 5412 5404 5396 5389 5381 5374 5365 5355 5345 5336 5327 5320 5313 5306 5301 5299 5297 5296 5294 5291 5291 5291 5290 5288 5287 5286 5287 5293 5300 5308 5313 5320 5326 5331 5336 5344 5353 5366 5378 5389 5400 5411 5422 5431 5441 5451 5462 5472 5478 5484 5493 5503 5512 5520 5529 5537 5544 5550 5556 5561 5566 5572 5577 5582 5587 5592 5596 5601 5607 5612
5495 5489 5484 5477 5470 5464 5458 5453 5447 5441 5435 5429 5423 5417 5410 5403 5395 5387 5379 5372 5364 5355 5345 5335 5324 5315 5309 5302 5297 5293 5291 5289 5288 5286 5283 5282 5282 5281 5280 5279 5279 5282 5287 5294 5301 5306 5312 5317 5322 5328 5336 5346 5359 5371 5382 5393 5404 5414 5423 5433 5444 5455 5465 5471 5477 5486 5495 5504 5514 5523 5531 5538 5543 5548 5553 5558 5563 5568 5573 5579 5585 5589 5594 5600 5606
5487 5481 5475 5469 5463 5456 5450 5444 5438 5433 5427 5421 5415 5408 5401 5394 5386 5378 5370 5363 5355 5345 5334 5324 5313 5304 5298 5293 5288 5285 5284 5282 5280 5278 5276 5274 5273 5273 5273 5273 5275 5278 5283 5289 5295 5300 5304 5308 5313 5320 5329 5340 5353 5364 5375 5386 5396 5406 5416 5426 5437 5448 5457 5463 5470 5480 5489 5498 5508 5516 5522 5529 5534 5539 5545 5550 5555 5561 5567 5573 5578 5582 5588 5594 5600
5479 5473 5467 5460 5454 5449 5442 5436 5430 5424 5419 5413 5406 5399 5392 5384 5376 5369 5361 5352 5344 5334 5323 5313 5303 5294 5288 5284 5280 5278 5277 5275 5272 5271 5270 5268 5266 5266 5267 5268 5270 5274 5279 5285 5289 5293 5297 5301 5306 5314 5324 5336 5348 5358 5368 5378 5388 5398 5409 5419 5429 5439 5448 5455 5463 5474 5483 5491 5501 5508 5515 5522 5527 5532 5539 5545 5550 5557 5562 5567 5572 5578 5584 5589 5594
5470 5464 5458 5452 5446 5440 5434 5428 5422 5416 5410 5404 5397 5390 5382 5374 5366 5359 5351 5342 5333 5322 5311 5302 5293 5286 5280 5276 5273 5272 5270 5268 5266 5264 5263 5261 5260 5260 5261 5263 5266 5270 5274 5279 5284 5287 5291 5295 5301 5309 5320 5332 5343 5352 5361 5371 5381 5391 5402 5412 5422 5431 5440 5448 5458 5467 5475 5484 5493 5501 5508 5513 5518 5524 5531 5536 5541 5547 5554 5561 5568 5575 5580 5585 5589
5462 5455 5449 5444 5438 5432 5426 5420 5413 5407 5401 5395 5389 5381 5373 5365 5357 5349 5340 5331 5321 5310 5299 5290 5283 5278 5273 5269 5267 5265 5263 5261 5259 5257 5257 5255 5253 5253 5255 5258 5261 5265 5270 5275 5279 5282 5285 5289 5297 5307 5318 5329 5339 5347 5356 5364 5374 5385 5395 5406 5415 5424 5432 5441 5451 5460 5468 5477 5486 5492 5498 5503 5508 5514 5520 5526 5535 5544 5551 5556 5562 5569 5575 5580 5584
5454 5448 5442 5437 5431 5425 5419 5412 5405 5399 5392 5386 5379 5372 5364 5355 5347 5339 5330 5320 5310 5299 5289 5280 5273 5269 5267 5264 5261 5259 5257 5255 5253 5251 5250 5249 5247 5247 5249 5253 5256 5260 5265 5270 5274 5278 5281 5286 5295 5305 5315 5324 5334 5343 5352 5360 5369 5379 5389 5399 5408 5415 5423 5434 5443 5453 5462 5471 5478 5484 5489 5495 5501 5509 5517 5526 5534 5541 5545 5550 5556 5561 5566 5572 5577
5446 5440 5435 5429 5424 5418 5412 5405 5398 5390 5384 5377 5370 5362 5354 5346 5337 5329 5320 5309 5299 5289 5279 5271 5266 5262 5260 5258 5255 5252 5251 5249 5247 5246 5243 5242 5240 5241 5243 5247 5251 5256 5261 5266 5270 5273 5277 5284 5293 5303 5312 5321 5331 5341 5349 5357 5366 5375 5384 5394 5401 5407 5415 5426 5436 5446 5456 5464 5473 5480 5485 5491 5499 5508 5515 5521 5527 5534 5540 5546 5552 5556 5561 5567 5573
5439 5433 5428 5423 5417 5411 5405 5398 5391 5383 5376 5369 5362 5354 5346 5337 5328 5320 5310 5299 5289 5280 5271 5264 5260 5255 5253 5252 5249 5247 5245 5243 5241 5240 5237 5235 5234 5235 5238 5242 5247 5252 5257 5262 5266 5269 5275 5283 5292 5301 5310 5319 5328 5337 5346 5353 5362 5371 5379 5388 5396 5403 5412 5422 5432 5442 5451 5460 5468 5475 5481 5489 5498 5504 5510 5516 5524 5531 5537 5541 5546 5553 5559 5565 5571
5432 5426 5421 5416 5410 5404 5398 5391 5384 5376 5369 5361 5354 5346 5338 5329 5319 5310 5300 5290 5280 5272 5264 5258 5253 5250 5247 5246 5244 5242 5239 5236 5235 5234 5231 5229 5228 5230 5233 5238 5243 5248 5253 5258 5262 5266 5272 5281 5289 5299 5308 5316 5324 5333 5341 5349 5357 5366 5375 5383 5392 5402 5410 5419 5429 5439 5450 5459 5467 5473 5480 5488 5495 5501 5509 5517 5522 5526 5530 5537 5544 5550 5556 5561 5567
5425 5419 5414 5409 5403 5397 5391 5384 5377 5370 5362 5354 5346 5338 5330 5321 5311 5301 5291 5280 5271 5264 5257 5252 5248 5244 5241 5241 5239 5237 5234 5231 5229 5227 5225 5224 5223 5225 5229 5234 5239 5245 5250 5254 5258 5263 5269 5277 5287 5296 5305 5313 5321 5329 5337 5344 5351 5360 5370 5379 5388 5398 5407 5414 5423 5434 5444 5455 5464 5472 5479 5487 5494 5502 5509 5513 5517 5523 5530 5537 5543 5547 5552 5556 5561
5417 5412 5406 5401 5396 5390 5384 5377 5370 5363 5355 5347 5339 5331 5322 5313 5303 5293 5282 5272 5264 5257 5252 5246 5242 5239 5236 5235 5235 5232 5228 5225 5223 5221 5219 5219 5219 5221 5225 5230 5235 5241 5246 5251 5256 5261 5268 5276 5285 5294 5302 5310 5318 5325 5332 5339 5346 5355 5365 5375 5384 5393 5401 5409 5418 5428 5438 5448 5458 5466 5474 5482 5490 5496 5501 5508 5515 5521 5527 5533 5537 5540 5544 5548 5552
5410 5404 5399 5394 5388 5382 5377 5370 5363 5356 5348 5340 5332 5324 5315 5306 5295 5284 5275 5266 5257 5252 5247 5241 5237 5234 5232 5230 5230 5228 5224 5219 5217 5215 5214 5214 5215 5217 5221 5226 5232 5238 5243 5247 5252 5259 5266 5275 5284 5292 5300 5307 5314 5321 5328 5335 5342 5351 5361 5371 5380 5388 5396 5406 5416 5425 5435 5445 5454 5461 5469 5477 5482 5487 5495 5503 5508 5512 5516 5521 5526 5530 5535 5540 5545
5403 5397 5392 5386 5381 5375 5368 5363 5357 5349 5341 5333 5325 5317 5308 5298 5287 5276 5267 5259 5252 5247 5243 5236 5231 5229 5228 5226 5225 5224 5220 5215 5211 5210 5209 5210 5212 5214 5217 5222 5227 5234 5239 5244 5249 5256 5263 5272 5280 5288 5296 5303 5310 5316 5324 5331 5338 5348 5358 5367 5375 5383 5393 5403 5413 5423 5433 5442 5450 5458 5465 5472 5478 5484 5490 5494 5498 5502 5508 5513 5518 5524 5529 5533 5538
5397 5391 5385 5379 5373 5368 5361 5355 5349 5342 5334 5325 5317 5309 5300 5289 5278 5268 5259 5252 5246 5241 5237 5232 5227 5224 5223 5222 5220 5219 5217 5211 5206 5205 5205 5206 5208 5210 5213 5218 5223 5229 5235 5241 5246 5253 5260 5268 5277 5285 5292 5299 5306 5313 5320 5327 5336 5345 5354 5362 5371 5379 5388 5398 5407 5417 5427 5436 5444 5451 5457 5464 5472 5479 5483 5487 5492 5498 5503 5509 5514 5519 5522 5527 5535
5390 5385 5379 5373 5366 5361 5355 5348 5341 5334 5327 5318 5308 5300 5291 5280 5270 5261 5252 5246 5240 5236 5232 5228 5224 5221 5219 5217 5216 5214 5213 5208 5203 5201 5202 5202 5204 5207 5209 5213 5219 5224 5230 5237 5243 5250 5257 5265 5274 5282 5289 5295 5302 5310 5317 5324 5332 5341 5350 5358 5366 5376 5385 5394 5403 5412 5420 5427 5434 5441 5447 5455 5464 5470 5475 5482 5489 5494 5500 5506 5510 5513 5518 5525 5531
5384 5378 5372 5366 5359 5353 5347 5341 5334 5326 5319 5310 5301 5291 5281 5271 5262 5255 5248 5242 5236 5231 5227 5224 5221 5217 5215 5214 5212 5209 5207 5204 5200 5198 5198 5198 5200 5202 5205 5209 5215 5220 5226 5233 5239 5246 5253 5262 5270 5278 5284 5291 5299 5307 5314 5321 5329 5337 5346 5355 5365 5375 5384 5392 5399 5408 5415 5422 5429 5435 5441 5447 5455 5461 5468 5475 5483 5489 5495 5499 5503 5509 5515 5520 5524
5378 5372 5366 5359 5353 5346 5339 5333 5326 5319 5311 5303 5293 5283 5273 5263 5255 5250 5245 5239 5233 5226 5223 5220 5217 5214 5212 5210 5208 5205 5202 5200 5197 5194 5194 5194 5195 5197 5201 5206 5211 5216 5222 5229 5235 5242 5249 5257 5266 5273 5280 5287 5295 5303 5310 5318 5325 5334 5345 5355 5364 5371 5379 5386 5394 5402 5410 5417 5423 5429 5435 5440 5446 5454 5461 5469 5477 5483 5487 5492 5498 5505 5510 5514 5520
5371 5366 5359 5353 5346 5339 5332 5326 5319 5312 5304 5296 5287 5277 5267 5257 5250 5245 5241 5236 5230 5223 5219 5217 5214 5211 5209 5206 5204 5201 5198 5196 5194 5192 5190 5189 5190 5192 5197 5202 5207 5212 5219 5226 5232 5238 5244 5253 5262 5270 5277 5284 5291 5299 5307 5314 5322 5332 5343 5351 5357 5361 5368 5378 5387 5394 5401 5409 5416 5422 5428 5434 5441 5449 5456 5464 5471 5477 5482 5489 5496 5501 5506 5511 5517
5365 5359 5353 5347 5339 5332 5325 5319 5312 5304 5297 5289 5280 5271 5262 5253 5246 5241 5238 5234 5228 5221 5216 5214 5212 5209 5206 5203 5200 5197 5194 5192 5190 5189 5187 5185 5185 5187 5191 5197 5203 5209 5216 5223 5229 5234 5241 5249 5257 5266 5274 5281 5288 5295 5303 5311 5320 5330 5338 5344 5350 5357 5363 5371 5378 5386 5394 5402 5410 5417 5424 5431 5438 5445 5452 5460 5467 5473 5479 5486 5491 5496 5501 5507 5512
5358 5353 5346 5340 5334 5326 5319 5312 5304 5297 5290 5282 5273 5265 5256 5249 5243 5238 5235 5231 5226 5219 5213 5211 5208 5206 5204 5201 5197 5194 5191 5189 5187 5186 5184 5182 5181 5182 5186 5192 5200 5207 5214 5220 5226 5231 5238 5246 5253 5261 5269 5276 5284 5292 5300 5308 5317 5325 5332 5339 5347 5355 5361 5366 5372 5380 5388 5396 5404 5412 5420 5428 5436 5444 5451 5458 5464 5469 5474 5479 5484 5489 5494 5500 5505
5352 5346 5341 5335 5328 5321 5313 5305 5297 5290 5282 5274 5266 5259 5252 5245 5240 5236 5232 5228 5223 5217 5212 5209 5206 5203 5201 5199 5195 5192 5189 5187 5184 5183 5180 5178 5178 5178 5182 5188 5197 5205 5213 5220 5224 5228 5235 5242 5250 5258 5266 5272 5279 5288 5296 5305 5313 5320 5327 5336 5343 5349 5356 5362 5369 5375 5383 5391 5400 5409 5418 5426 5434 5442 5448 5453 5457 5461 5465 5470 5476 5481 5486 5492 5498
5346 5341 5335 5329 5322 5316 5308 5300 5291 5282 5274 5266 5258 5252 5246 5241 5236 5232 5229 5225 5221 5216 5211 5207 5203 5200 5198 5196 5194 5191 5188 5185 5182 5180 5178 5176 5175 5176 5180 5185 5193 5201 5210 5217 5222 5226 5232 5239 5246 5254 5262 5269 5276 5285 5293 5301 5308 5315 5323 5331 5337 5344 5352 5359 5366 5372 5379 5389 5399 5408 5416 5423 5429 5434 5439 5444 5449 5454 5459 5465 5470 5475 5480 5486 5492
5340 5335 5329 5323 5317 5310 5304 5296 5287 5277 5268 5260 5252 5246 5241 5236 5231 5228 5225 5221 5218 5214 5209 5205 5202 5198 5196 5193 5191 5189 5186 5183 5181 5178 5176 5174 5173 5175 5179 5184 5191 5199 5206 5212 5218 5223 5229 5236 5243 5251 5259 5266 5273 5281 5288 5296 5303 5311 5319 5326 5333 5341 5350 5358 5366 5374 5382 5390 5398 5405 5410 5415 5420 5424 5431 5438 5444 5450 5455 5460 5465 5470 5475 5481 5486
5334 5329 5323 5317 5311 5305 5298 5291 5283 5274 5263 5254 5247 5242 5238 5234 5228 5223 5220 5216 5212 5208 5205 5203 5200 5197 5194 5191 5189 5187 5185 5182 5180 5177 5175 5174 5173 5175 5179 5184 5191 5197 5203 5208 5213 5219 5225 5232 5240 5249 5257 5265 5271 5278 5286 5293 5301 5308 5315 5323 5332 5340 5348 5356 5364 5372 5379 5385 5391 5395 5400 5406 5412 5419 5427 5433 5439 5444 5449 5454 5459 5465 5470 5474 5480
5328 5322 5317 5311 5305 5299 5292 5285 5278 5271 5261 5251 5242 5235 5231 5229 5226 5220 5215 5211 5207 5204 5201 5199 5197 5195 5193 5190 5188 5186 5184 5181 5179 5177 5175 5174 5174 5175 5180 5185 5191 5197 5202 5206 5210 5215 5222 5230 5239 5249 5258 5265 5271 5277 5284 5291 5298 5305 5312 5321 5329 5337 5344 5351 5357 5364 5371 5376 5381 5387 5395 5403 5409 5416 5422 5428 5433 5438 5443 5449 5454 5459 5463 5469 5475
5322 5317 5312 5306 5299 5293 5287 5280 5273 5267 5259 5252 5244 5234 5225 5221 5220 5217 5213 5208 5205 5202 5199 5197 5194 5193 5191 5188 5186 5184 5183 5181 5179 5177 5175 5174 5175 5177 5181 5186 5192 5197 5201 5205 5209 5214 5220 5228 5238 5247 5255 5262 5268 5274 5281 5288 5295 5302 5310 5318 5325 5332 5340 5347 5354 5360 5366 5372 5378 5385 5393 5400 5405 5411 5416 5422 5428 5433 5438 5444 5449 5453 5458 5464 5470
5317 5311 5306 5300 5294 5288 5282 5276 5269 5262 5256 5250 5245 5239 5230 5221 5216 5213 5210 5207 5204 5201 5198 5195 5192 5190 5189 5187 5185 5183 5181 5180 5179 5177 5175 5175 5176 5178 5182 5187 5192 5196 5200 5204 5208 5212 5218 5226 5235 5243 5251 5257 5264 5270 5277 5284 5291 5299 5307 5314 5322 5329 5337 5344 5351 5356 5361 5368 5375 5382 5388 5394 5400 5406 5411 5417 5422 5427 5432 5437 5442 5447 5454 5459 5464
5311 5306 5300 5295 5289 5283 5277 5271 5264 5258 5252 5246 5242 5239 5235 5227 5220 5215 5210 5206 5202 5198 5196 5193 5190 5188 5186 5185 5183 5182 5180 5179 5178 5177 5176 5175 5176 5179 5183 5186 5191 5194 5197 5201 5205 5208 5213 5221 5229 5238 5246 5254 5260 5266 5273 5280 5288 5295 5302 5310 5318 5326 5334 5341 5347 5352 5357 5364 5371 5377 5384 5390 5395 5401 5406 5411 5416 5421 5426 5431 5436 5442 5448 5452 5457
5305 5300 5294 5289 5283 5277 5271 5265 5259 5253 5249 5244 5239 5235 5233 5229 5225 5220 5215 5209 5203 5197 5193 5190 5188 5186 5183 5182 5181 5180 5179 5178 5177 5176 5176 5176 5177 5179 5182 5186 5189 5193 5196 5200 5204 5206 5210 5216 5222 5230 5239 5247 5254 5261 5268 5276 5284 5291 5298 5307 5316 5324 5332 5338 5342 5347 5352 5359 5366 5373 5379 5385 5390 5395 5400 5405 5410 5415 5420 5426 5432 5437 5442 5446 5451
5300 5295 5289 5284 5278 5272 5266 5260 5254 5249 5244 5240 5236 5232 5228 5225 5222 5220 5217 5213 5209 5203 5197 5191 5187 5184 5182 5180 5179 5178 5177 5176 5175 5175 5175 5176 5177 5179 5181 5184 5188 5191 5195 5199 5202 5205 5209 5214 5219 5226 5234 5241 5247 5255 5263 5272 5279 5287 5295 5304 5312 5320 5326 5331 5335 5341 5347 5354 5360 5367 5374 5379 5384 5389 5394 5399 5404 5409 5414 5420 5425 5430 5435 5441 5445
5294 5289 5284 5278 5273 5267 5262 5255 5250 5245 5240 5236 5232 5228 5225 5222 5218 5215 5213 5210 5207 5202 5196 5190 5185 5182 5179 5178 5177 5176 5175 5173 5173 5173 5174 5175 5176 5177 5180 5183 5186 5189 5193 5197 5200 5203 5207 5211 5217 5225 5233 5240 5246 5252 5260 5267 5275 5283 5292 5299 5307 5313 5318 5324 5330 5336 5343 5349 5355 5362 5368 5374 5379 5384 5389 5394 5398 5402 5407 5414 5419 5425 5430 5435 5438
5289 5284 5279 5273 5267 5262 5257 5251 5246 5241 5236 5232 5228 5224 5221 5218 5214 5212 5209 5206 5203 5199 5194 5189 5183 5179 5176 5175 5174 5173 5173 5172 5171 5172 5173 5174 5175 5176 5178 5181 5185 5187 5191 5195 5199 5202 5205 5209 5215 5222 5230 5238 5246 5252 5259 5266 5273 5280 5287 5294 5301 5307 5313 5320 5327 5333 5338 5344 5351 5357 5363 5368 5373 5379 5384 5388 5393 5397 5403 5409 5414 5418 5423 5427 5431
5284 5279 5274 5268 5263 5257 5252 5247 5242 5237 5233 5229 5225 5221 5218 5215 5211 5208 5206 5203 5200 5197 5194 5191 5186 5181 5177 5174 5172 5171 5171 5170 5169 5170 5171 5172 5173 5174 5176 5179 5182 5185 5189 5192 5196 5200 5203 5207 5213 5219 5226 5234 5242 5250 5258 5265 5272 5277 5283 5289 5295 5302 5309 5316 5323 5329 5334 5340 5346 5351 5357 5363 5368 5373 5378 5383 5387 5392 5397 5402 5407 5412 5417 5421 5425
5280 5276 5270 5264 5259 5254 5248 5243 5238 5233 5229 5226 5222 5218 5215 5212 5208 5205 5203 5201 5199 5196 5193 5190 5187 5182 5178 5174 5172 5170 5169 5168 5168 5169 5170 5170 5171 5172 5174 5176 5179 5183 5186 5190 5193 5197 5201 5204 5209 5215 5222 5230 5238 5246 5254 5262 5268 5274 5280 5286 5292 5299 5306 5312 5318 5323 5329 5335 5340 5346 5352 5357 5362 5367 5372 5377 5382 5386 5391 5395 5400 5405 5409 5414 5418
5277 5272 5267 5261 5256 5250 5245 5240 5235 5230 5226 5223 5220 5216 5212 5209 5206 5203 5200 5198 5196 5194 5192 5189 5186 5182 5177 5174 5171 5169 5168 5167 5167 5167 5168 5169 5170 5171 5172 5173 5176 5180 5184 5187 5190 5194 5197 5200 5204 5210 5218 5226 5234 5242 5250 5257 5264 5270 5277 5283 5290 5296 5301 5306 5312 5318 5323 5329 5335 5341 5347 5352 5356 5362 5367 5372 5376 5381 5385 5390 5394 5399 5403 5408 5413
5273 5268 5263 5258 5253 5248 5243 5237 5232 5228 5224 5221 5217 5214 5210 5207 5203 5200 5198 5196 5194 5192 5190 5187 5184 5181 5177 5173 5171 5169 5167 5166 5165 5164 5165 5166 5167 5168 5169 5171 5173 5176 5180 5184 5187 5190 5193 5197 5200 5206 5213 5222 5230 5238 5246 5253 5259 5266 5272 5279 5285 5291 5297 5302 5308 5314 5320 5325 5331 5337 5342 5347 5352 5357 5361 5366 5371 5376 5381 5385 5390 5394 5399 5404 5409
5268 5263 5259 5255 5250 5245 5240 5235 5229 5225 5221 5218 5215 5211 5208 5205 5201 5198 5195 5193 5191 5190 5188 5185 5183 5180 5176 5172 5170 5168 5166 5165 5164 5163 5163 5164 5165 5166 5167 5168 5170 5173 5176 5180 5184 5187 5190 5193 5197 5202 5210 5218 5226 5234 5242 5249 5255 5261 5268 5274 5280 5286 5292 5298 5303 5308 5315 5321 5326 5331 5337 5342 5347 5352 5357 5362 5367 5371 5376 5380 5385 5389 5394 5398 5402
5264 5259 5255 5251 5246 5242 5237 5231 5227 5222 5218 5215 5212 5209 5205 5202 5199 5195 5193 5191 5189 5187 5185 5183 5181 5179 5175 5172 5169 5167 5165 5164 5163 5162 5162 5163 5164 5165 5166 5167 5169 5171 5173 5176 5180 5183 5186 5190 5193 5198 5206 5214 5223 5231 5238 5244 5250 5257 5263 5269 5275 5281 5287 5292 5297 5302 5308 5314 5319 5325 5331 5337 5342 5347 5353 5357 5361 5365 5369 5374 5379 5383 5388 5392 5395
5259 5255 5251 5247 5243 5239 5234 5229 5224 5219 5215 5212 5209 5206 5203 5200 5197 5193 5191 5189 5187 5185 5184 5181 5180 5178 5175 5172 5169 5166 5164 5163 5163 5162 5162 5162 5163 5164 5165 5166 5167 5169 5171 5173 5176 5180 5183 5187 5190 5195 5202 5210 5218 5226 5233 5239 5246 5252 5258 5264 5270 5276 5282 5288 5293 5298 5303 5309 5314 5320 5325 5330 5335 5341 5346 5349 5353 5358 5362 5367 5372 5377 5382 5385 5389
5255 5251 5247 5244 5240 5235 5231 5226 5221 5216 5213 5209 5206 5203 5201 5198 5195 5191 5189 5186 5185 5183 5182 5180 5178 5177 5175 5172 5169 5167 5165 5163 5162 5162 5162 5161 5161 5162 5163 5164 5166 5167 5169 5171 5174 5177 5180 5184 5188 5193 5199 5206 5214 5221 5228 5235 5242 5247 5253 5259 5265 5271 5276 5282 5288 5293 5299 5304 5310 5315 5320 5324 5329 5334 5339 5343 5347 5351 5355 5360 5365 5370 5375 5378 5381
5251 5247 5243 5239 5236 5232 5227 5222 5217 5213 5209 5206 5203 5201 5198 5195 5192 5189 5186 5184 5183 5181 5180 5178 5177 5176 5174 5173 5170 5167 5165 5163 5162 5161 5161 5161 5160 5160 5161 5162 5163 5165 5167 5170 5172 5175 5178 5181 5185 5190 5196 5202 5209 5216 5223 5230 5237 5242 5248 5253 5258 5264 5270 5276 5281 5287 5293 5299 5304 5309 5314 5319 5323 5328 5332 5337 5341 5345 5349 5354 5359 5364 5368 5371 5375
5246 5242 5239 5235 5231 5228 5223 5219 5214 5210 5206 5203 5200 5197 5195 5193 5190 5187 5184 5182 5180 5179 5177 5176 5175 5174 5174 5172 5170 5168 5165 5163 5161 5161 5160 5160 5160 5160 5160 5161 5162 5163 5165 5168 5170 5173 5176 5179 5182 5187 5193 5199 5206 5212 5218 5224 5231 5236 5242 5247 5252 5257 5263 5268 5274 5280 5286 5291 5297 5302 5307 5312 5316 5321 5325 5330 5334 5338 5342 5347 5352 5356 5361 5365 5368
5241 5238 5234 5230 5227 5223 5219 5215 5211 5206 5203 5200 5196 5194 5192 5190 5188 5185 5182 5180 5178 5176 5175 5174 5173 5172 5172 5171 5169 5168 5166 5163 5162 5160 5159 5159 5159 5159 5159 5160 5161 5161 5163 5166 5168 5171 5174 5176 5180 5185 5190 5196 5202 5207 5213 5219 5225 5230 5235 5240 5245 5250 5255 5261 5267 5273 5278 5283 5289 5294 5298 5303 5308 5312 5317 5321 5325 5330 5334 5339 5343 5348 5353 5357 5360
5236 5233 5229 5226 5223 5219 5215 5211 5207 5203 5200 5196 5193 5191 5189 5187 5185 5183 5180 5178 5175 5174 5173 5172 5171 5170 5169 5169 5168 5167 5165 5163 5162 5160 5159 5158 5158 5158 5159 5159 5160 5161 5162 5164 5166 5168 5171 5174 5178 5182 5187 5193 5198 5204 5209 5215 5220 5224 5229 5234 5238 5243 5248 5253 5259 5264 5270 5275 5280 5285 5290 5295 5299 5303 5308 5312 5317 5321 5326 5331 5335 5340 5344 5348 5351
5232 5229 5225 5222 5218 5215 5211 5207 5203 5199 5196 5193 5190 5187 5186 5184 5182 5180 5178 5176 5174 5172 5170 5169 5168 5167 5167 5167 5166 5166 5165 5163 5162 5160 5158 5158 5157 5157 5158 5159 5159 5160 5161 5163 5164 5167 5169 5172 5176 5180 5185 5189 5194 5199 5204 5210 5215 5219 5224 5229 5233 5237 5242 5247 5252 5257 5262 5267 5272 5277 5282 5287 5291 5295 5300 5304 5308 5313 5318 5322 5326 5330 5334 5338 5342
5227 5224 5220 5217 5214 5210 5207 5203 5199 5195 5192 5190 5187 5184 5182 5181 5179 5178 5176 5174 5172 5170 5168 5167 5166 5165 5164 5164 5164 5164 5163 5162 5161 5160 5158 5157 5157 5156 5157 5157 5158 5159 5160 5161 5163 5165 5167 5169 5173 5177 5182 5186 5190 5194 5199 5204 5209 5214 5218 5223 5227 5232 5237 5242 5246 5251 5255 5260 5265 5270 5275 5279 5284 5288 5292 5296 5300 5304 5309 5313 5317 5321 5325 5329 5333
5222 5219 5215 5212 5209 5206 5202 5199 5195 5192 5189 5186 5184 5181 5179 5178 5176 5175 5173 5171 5170 5168 5166 5164 5163 5162 5162 5161 5161 5161 5161 5161 5160 5159 5158 5157 5156 5156 5155 5156 5157 5158 5159 5160 5161 5163 5164 5167 5170 5174 5178 5182 5186 5190 5194 5198 5203 5208 5212 5217 5222 5227 5232 5236 5240 5245 5249 5253 5257 5262 5267 5272 5276 5280 5284 5288 5291 5296 5300 5304 5308 5312 5316 5320 5324